FENGYUN 1C DEB, 41006

Orbit data source: Space-Track

FENGYUN 1C DEB, 41006 is space debris in SSO originally from a launch on Mon, 10 May 1999 UTC launched from the Taiyaun Space Center, China (TSC). Fengyun 1C debris stems from the Chinese weather satellite Fengyun-1C, which was intentionally destroyed by a Chinese anti-satellite missile in 2007. This event dramatically increased the amount of space debris, with thousands of trackable fragments posing hazards to satellites and human spaceflight. The Fengyun 1C debris cloud has become a focal point in discussions about space sustainability and the need for international regulations to prevent the creation of new debris.

Loading next visibility...
Identifier
41006, 1999-025EXL
Orbit
SSO
Country
Flag of CNCN / PRC
Related business
Manufacturer
Unknown
Mission
Spacecraft
Bus & Motor
Unknown
Mass
Unknown
Launch date (UTC)
1999-05-10 (26 years ago)
Launch vehicle
Unknown
Launch site
Taiyaun Space Center, China (TSC)
Object type
Payload
Rocket body
Debris
Shape & HBR
Unknown shape, 0.1 m
Radar Cross Section
Small (<0.1 m²)

Expand to show TLE details & history
Last TLE update: 1 week ago

TLE from 1 week ago
0 FENGYUN 1C DEB
1 41006U 99025EXL 25297.35265187  .00003243  00000-0  25650-2 0  9990
2 41006 102.3666 152.5933 0185024 125.9603 235.8860 13.84922753568051
Epoch: 2025-10-24T08:27Z
TLE epoch observation values (Epoch: 2025-10-24T08:27:49.121Z)
Latitude
0.00004°
Longitude
-7.36016°
Altitude
1,026.921 km
Speed
7.299 km/s
True Right ascension
10h 10m 22s
True Declination
0° 00' 00"
Sunlit
Object was in daylight at epoch
Visualization orbit readout
Latitude
Unknown
Longitude
Unknown
Altitude
Unknown
Speed
Unknown
Apparent Right ascension
Unknown
Apparent Declination
Unknown
Sunlit
N/A
Visualization observer readout
Local Sidereal Time
14:49:53
Azimuth
Unknown
Elevation
Unknown
Doppler factor
Unknown
Orbital elements
Apogee altitude
1,079.364 km
Perigee altitude
808.414 km
Semi-major axis
7,322.026 km
Eccentricity
0.0185
Inclination
102.3666°
RAAN
152.5933°
Arg. of periapsis
125.9603°
True anomaly
234.15337°
Mean anomaly
235.886°
Eccentric anomaly
235.01742°
Mean motion
3.46415 °/min
Orbital period
103.92 mins
BSTAR
0.002565
Loading maneuver chart data...
Computing Atmospheric mass density...

Documentation

Showing up to 5 results
|